Location: Pasadena, ca
(34.1243°N, 118.1037°W)
Time: 09:48:53
(UTC-07:00)

Tiangong 1 - Pass Details

Date: 12 October 2017
Orbit: 294 x 320 km, 42.8° (Epoch: 18 October)

Event Time Altitude Azimuth Distance (km) Brightness Sun altitude
Rises 19:45:28 0° 305° (NW) 2,036 5.7 -18.2°
Reaches altitude 10° 19:47:45 10° 324° (NW) 1,200 4.1 -18.6°
Enters shadow 19:49:06 18° 351° (N) 856 2.9 -18.9°
